Mini Trail des Hautes Fagnes 24/09/2011 16 Km
Place Nom Prenom Temps Km/h Place. Cat. Cat.
1 RECKER MARCEL 5301 1:12:32 13,2 1 V2
2 ZEIDLER QUENTIN 5327 1:14:45 12,8 1 S
3 PIRON MATHIEU 5183 1:15:26 12,7 2 S
4 DE ZUTTER BASTIEN 5053 1:18:14 12,3 3 S
5 LEGRAND LIONEL 5304 1:19:06 12,1 4 S
6 HERBET HENRY 5295 1:20:15 12,0 1 V1
7 DECRU BART 5335 1:20:31 11,9 5 S
8 CREMER THOMAS 5047 1:20:40 11,9 1 EG
9 BALLMANN DANY 5013 1:21:21 11,8 2 V1
10 LACROSSE WILLIAM 5125 1:21:58 11,7 6 S
11 HEPNEN DANNY 5472 1:22:13 11,7 7 S
12 FRANCOIS BENOÎT 5082 1:23:53 11,4 8 S
13 SCHOONBROODT FABRICE 5299 1:23:56 11,4 9 S
14 LOOP ROMAIN 5394 1:24:09 11,4 2 EG
15 VERBANDT HUGO 5469 1:24:22 11,4 2 V2
16 VAN LIERDE MATHIEU 5473 1:24:28 11,4 10 S
17 HAOUCHINE HASSEN 5280 1:24:29 11,4 3 V1
18 VAN DYCK DIMITRI 5474 1:24:40 11,3 11 S
19 MEURENS SERGE 5158 1:24:42 11,3 4 V1
20 ANDRES GABY 5005 1:26:00 11,2 1 A1
21 SERVAIS ARILLE 5366 1:26:16 11,1 5 V1
22 SAMYN STEPHAN 5374 1:26:30 11,1 12 S
23 VERDIN JOËL 5236 1:27:48 10,9 6 V1
24 VAN DER VLEUGEL BERNARD 5426 1:28:03 10,9 7 V1
25 SPRONKEN RAOUL 5483 1:28:35 10,8 8 V1
26 LEUSCH PHILIPPE 5370 1:28:42 10,8 3 V2
27 MIEVIS STEPHANE 5287 1:28:47 10,8 13 S
28 DE GEEST TOMMY 5050 1:28:51 10,8 14 S
29 DE MEERSMAN THIBAUT 5444 1:28:54 10,8 15 S
30 WANSART PIERRE 5431 1:29:37 10,7 16 S
31 TOMBEUX JEAN CLAUDE 5316 1:30:09 10,6 4 V2
32 BLAIN THOMAS 5437 1:30:15 10,6 17 S
33 WILLIAM WECHSELER 5249 1:30:22 10,6 9 V1
34 LEJEUNE PHILIPPE 5135 1:30:41 10,6 10 V1
35 FOURNIER DANIEL 5378 1:30:58 10,6 11 V1
36 VILLERS MARC 5477 1:31:17 10,5 18 S
37 HEINRICHS CHRISTIAN 5449 1:31:19 10,5 12 V1
38 GLADIEUX PHILIP 5451 1:31:29 10,5 13 V1
39 REMY GILLES 5506 1:31:48 10,5 19 S
40 ROBERT DAMIEN 5480 1:31:54 10,4 14 V1
41 MOURAD CHRISTOPHE 5168 1:32:00 10,4 15 V1
42 COURARD DIDIER 5410 1:32:15 10,4 16 V1
43 WERY MICHEL 5418 1:32:22 10,4 5 V2
44 VANPAECKE LUC 5492 1:32:29 10,4 17 V1
45 VANDENDRIESSCHE MICHAEL 5233 1:32:46 10,3 20 S
46 ADAM JEROME 5001 1:32:57 10,3 21 S
47 ANDRE RENE 5372 1:33:11 10,3 6 V2
48 RADEMAKER MICHAEL 5186 1:33:39 10,3 22 S
49 CREMER DANIEL 5046 1:33:53 10,2 18 V1
50 MANIQUET ETIENNE 5417 1:34:36 10,1 23 S
51 BLAISE CHRISTIANE 5407 1:34:55 10,1 1 A2
52 RIGA PHILIPPE 5189 1:35:09 10,1 19 V1
53 SNACKERS FRANCIS 5482 1:35:21 10,1 7 V2
54 JULEMONT JEAN MICHEL 5446 1:35:48 10,0 20 V1
55 HERMANS MARC 5358 1:36:05 10,0 8 V2
56 SERVAIS ADRIEN 5365 1:36:13 10,0 3 EG
57 CRASSON VINCENT 5334 1:36:21 10,0 9 V2
58 FREDERIX LUDO 5291 1:36:31 9,9 21 V1
59 COLSON DAVID 5042 1:36:35 9,9 24 S
60 FRANKINET PIERRE 5083 1:36:53 9,9 25 S
61 MASSA VINCENT 5150 1:37:18 9,9 26 S
62 GELUK SEBASTIEN 5343 1:37:35 9,8 27 S
63 ZEYEN JEAN PIERRE 5346 1:37:41 9,8 22 V1
64 BESONHE SIMON 5021 1:37:44 9,8 28 S
65 BASTIN ERIC 5438 1:38:06 9,8 10 V2
66 ADAM YANNICK 5002 1:38:09 9,8 29 S
67 SOLVEL FRÉDÉRIC 5206 1:38:11 9,8 30 S
68 WALLERAND MICHAEL 5243 1:38:13 9,8 31 S
69 PIRLOT AXELLE 5181 1:38:15 9,8 2 A1
70 GILLIS KOEN 5090 1:38:24 9,8 32 S
71 SONCK PATRICK 5207 1:38:36 9,7 23 V1
72 DE VILDER DIRK 5052 1:38:42 9,7 24 V1
73 VERVLOET GUIDO 5424 1:38:47 9,7 25 V1
74 THELEN NORBERT 5214 1:38:49 9,7 11 V2
75 DE BUYSER NOEL 5356 1:38:51 9,7 12 V2
76 SCOTT CHRIS 5201 1:38:53 9,7 33 S
77 CORDIER CHRISTINE 5502 1:38:55 9,7 2 A2
78 LENNERTS CEDRIC 5371 1:38:56 9,7 34 S
79 LANNOYE DENIS 5404 1:39:07 9,7 26 V1
80 MEURENS THOMAS 5159 1:39:18 9,7 4 EG
81 ROSA LAURENT 5191 1:39:26 9,7 27 V1
82 MOSSAY PASCAL 5406 1:39:28 9,7 35 S
83 JEWASINKI MICHEL 5292 1:39:34 9,6 36 S
84 COLGEN KORNELIA 5487 1:39:35 9,6 3 A1
85 LENZ BRUNO 5140 1:39:37 9,6 37 S
86 COLIN JEAN LOUIS 5315 1:39:47 9,6 13 V2
87 HOGGART MATTHIEU 5109 1:39:49 9,6 5 EG
88 FIFI BERNARD 5354 1:39:50 9,6 14 V2
89 BONFOND PHILIPPE 5448 1:40:16 9,6 38 S
90 MERLE JULIE 5507 1:40:27 9,6 1 D
91 HUTSCHEMACKERS BERNARD 5113 1:40:59 9,5 28 V1
92 HENDRIKS KOEN 5336 1:41:12 9,5 39 S
93 MONDELAERS GUIDO 5360 1:41:24 9,5 29 V1
94 GILET JACQUES 5088 1:41:42 9,4 30 V1
95 DETEMMERMAN ANDY 5389 1:41:43 9,4 40 S
96 LERAT PIERRE-JEAN 5141 1:42:10 9,4 41 S
97 BARROO SÉBASTIEN 5014 1:42:15 9,4 42 S
98 SCHOMUS PHILIPPE 5196 1:42:36 9,4 43 S
99 WARNAAR ARIE 5331 1:42:44 9,3 31 V1
100 SCHUERMANS WIM 5199 1:42:48 9,3 44 S
101 VAN GORP BART 5277 1:42:59 9,3 32 V1
102 MAQUET CECILE 5147 1:43:42 9,3 4 A1
103 HERTAY JEAN-PAUL 5108 1:43:43 9,3 33 V1
104 CHAUVIN RENAUD 5037 1:43:46 9,3 45 S
105 THUNUS FRÉDÉRIC 5218 1:43:48 9,2 46 S
106 WITKAM PETER 5332 1:43:51 9,2 15 V2
107 LECOMTE ANTOINE 5132 1:43:53 9,2 47 S
108 GILSON ALEXANDRE 5091 1:43:56 9,2 48 S
109 TABAR CHRISTOPHE 5210 1:44:01 9,2 49 S
110 VRANKEN KEVIN 5305 1:44:03 9,2 50 S
111 CAILLER STEVE 5458 1:44:05 9,2 51 S
112 FISCHER RENAUD 5079 1:44:18 9,2 34 V1
113 RADERMACHER ARNAUD 5187 1:44:34 9,2 52 S
114 MONTYNE GRÉGORY 5166 1:44:34 9,2 53 S
115 SALMON PATRICK 5285 1:44:54 9,2 16 V2
116 MARAITE ERIC 5445 1:45:01 9,1 35 V1
117 DEWALLEF PASCAL 5416 1:45:08 9,1 54 S
118 DEVILLERS GUILLAUME 5450 1:45:10 9,1 36 V1
119 DOZIN OLIVIER 5324 1:45:11 9,1 55 S
120 PAQUAY REGIS 5326 1:45:12 9,1 56 S
121 BRANDT NICOLAS 5481 1:45:23 9,1 57 S
122 KRATZBORN SERGE 5475 1:45:24 9,1 37 V1
123 ANTOINE VINCENT 5422 1:45:30 9,1 58 S
124 CHRISTIAENSEN PIETER 5489 1:45:34 9,1 59 S
125 JANSSENS PIETER 5272 1:45:47 9,1 60 S
126 JOSKIN JEAN MARC 5320 1:45:48 9,1 38 V1
127 GRODENT BARBARA 5349 1:46:12 9,0 2 D
128 DOME EUGENE 5302 1:46:15 9,0 39 V1
129 LEMOINE MICHEL 5447 1:46:28 9,0 40 V1
130 HENDRICKX WIM 5103 1:46:36 9,0 61 S
131 WEBER GERTY 5246 1:46:57 9,0 1 A3
132 STABEL PHILIPPE 5208 1:47:10 9,0 41 V1
133 GEORGES YVES 5509 1:47:20 8,9 62 S
134 BE ABDELHAD HAMED 5466 1:47:23 8,9 42 V1
135 GUSTIN JEAN FRANCOIS 5428 1:47:30 8,9 43 V1
136 FAFCHAMPS CLAUDINE 5318 1:47:33 8,9 5 A1
137 ALBERT MICHEL 5004 1:47:40 8,9 17 V2
138 SOLHEID DIMITRI 5344 1:47:48 8,9 63 S
139 EGGENHUISEN JORIS 5071 1:47:56 8,9 64 S
140 VON AGRIS CHRISTA 5240 1:48:02 8,9 3 A2
141 PIEDBOEUF ISABELLE 5398 1:48:04 8,9 6 A1
142 DALCQ JEAN-CLAUDE 5397 1:48:09 8,9 44 V1
143 IGO GHISLAINE 5115 1:48:12 8,9 4 A2
144 THONUS STEVE 5383 1:48:35 8,8 65 S
145 VAN CAUWELAERT MICHEL 5377 1:49:11 8,8 45 V1
146 KUPPENS OLIVIER 5357 1:49:12 8,8 46 V1
147 DANNEMARK WOLTER 5435 1:49:22 8,8 18 V2
148 HOUBBEN CONSTANCE 5352 1:49:27 8,8 7 A1
149 SCHYNS ANDRÉ 5200 1:49:28 8,8 47 V1
150 ZANDER-BASTIN SYLVIA 5251 1:49:34 8,8 8 A1
151 STOFFELS JOS 5485 1:49:42 8,8 19 V2
152 BOUILLON PIERRE 5024 1:50:03 8,7 48 V1
153 DENIS CHANTAL 5059 1:50:11 8,7 9 A1
154 LE BUSSY PHILIPPE 5131 1:50:27 8,7 66 S
155 BASTIN PAUL 5015 1:50:51 8,7 1 V3
156 DUPONT DOMINIQUE 5443 1:50:57 8,7 49 V1
157 VD HEIJDEN IWAN 5274 1:51:01 8,6 50 V1
158 NYSSEN SYLVIE 5281 1:51:05 8,6 10 A1
159 MANIL CAROLINE 5390 1:51:15 8,6 3 D
160 CARPENTIER MICHEL 5376 1:51:17 8,6 51 V1
161 SANTENE LAURENT 5367 1:51:37 8,6 67 S
162 WILLEM BERNARD 5508 1:51:38 8,6 68 S
163 MOUZELARD CHRISTOPHE 5169 1:51:44 8,6 69 S
164 BEBRONNE ANDRE 5282 1:52:07 8,6 20 V2
165 LELOTTE DAMIEN 5399 1:52:08 8,6 52 V1
166 MAGIS JEAN-BENOIT 5290 1:52:18 8,5 70 S
167 MEYS CLAUDE 5328 1:52:20 8,5 53 V1
168 MEESSEN ARLETTE 5427 1:52:24 8,5 11 A1
169 AUPAIX GUY 5008 1:52:48 8,5 21 V2
170 CROISIER AXEL 5317 1:53:12 8,5 54 V1
171 BENDERMACHER MICHIEL 5486 1:53:19 8,5 71 S
172 DYON PATRICE 5070 1:53:38 8,4 72 S
173 DELBOUILLE THIERRY 5057 1:53:41 8,4 55 V1
174 HUTSCHEMACKERS GUY 5114 1:54:12 8,4 2 V3
175 DEPREZ THOMAS 5504 1:54:18 8,4 73 S
176 BOULANGER NATHALIE 5026 1:54:23 8,4 12 A1
177 MERVEILLE PIERRE 5382 1:54:26 8,4 22 V2
178 HEUKEMES ALAIN 5436 1:54:28 8,4 56 V1
179 DETHIER JEAN HENRI 5314 1:54:39 8,4 23 V2
180 CARLIER BENOÎT 5034 1:54:53 8,4 57 V1
181 KOCKLENBERG FABIENNE 5393 1:54:57 8,4 13 A1
182 CHRISTIAEN BRUNO 5373 1:55:02 8,3 74 S
183 NINANE PHILIPPE 5368 1:55:04 8,3 75 S
184 PIROSON CHRISTIAN 5411 1:55:13 8,3 76 S
185 VANLANGENAKKER STEPHANE 5412 1:55:14 8,3 77 S
186 LOUSBERG JACKY 5405 1:55:17 8,3 58 V1
187 TOUSSAINT IVAN 5392 1:55:19 8,3 78 S
188 GOVAERTS LIEVE 5308 1:55:21 8,3 4 D
189 WOUTERS FRONE 5307 1:55:22 8,3 5 D
190 PTACEK DAVID 5306 1:55:23 8,3 59 V1
191 HORWARD BÉNÉDICTE 5111 1:55:32 8,3 14 A1
192 PRICKARTZ GERALD 5185 1:55:33 8,3 79 S
193 JANSSEN JULIEN 5493 1:55:46 8,3 80 S
194 LISMONT MARJORIE 5463 1:55:48 8,3 6 D
195 BOULNAGER EMMANUEL 5027 1:55:59 8,3 81 S
196 WERY BENOIT 5462 1:56:08 8,3 82 S
197 DE FLINES FRANCOIS 5433 1:56:10 8,3 83 S
198 LEEMANS FREDERIC 5303 1:56:19 8,3 84 S
199 JANMART GAELLE 5117 1:56:21 8,3 7 D
200 VAN AS NATHALIE 5221 1:56:23 8,2 15 A1
201 SCHMITZ ANDRE 5415 1:56:24 8,2 85 S
202 TRIGNON PIERRE MANUEL 5220 1:56:26 8,2 86 S
203 DERMAUX ANN 5425 1:56:44 8,2 5 A2
204 TITTELBACH MICHEL 5219 1:56:46 8,2 24 V2
205 WATSON IAN 5284 1:56:47 8,2 6 EG
206 VAN LANDEGHEM STÉPHANIE 5229 1:57:10 8,2 8 D
207 COUVREUR CHARLES-PHILIPPE 5045 1:57:15 8,2 25 V2
208 BRUHL ZANE 5309 1:57:22 8,2 9 D
209 WIELANT FRANÇOIS 5247 1:57:24 8,2 87 S
210 ROMEDENNE FREDERIC 5396 1:57:25 8,2 60 V1
211 PIERLOT AUDREY 5464 1:57:29 8,2 10 D
212 DESSART MARIE 5465 1:57:29 8,2 11 D
213 DURU MARTINE 5402 1:57:30 8,2 16 A1
214 DESAEGHERE BERNARD 5403 1:57:32 8,2 88 S
215 KONEN JEAN LOUIS 5429 1:57:33 8,2 61 V1
216 MARTENS RONALD 5484 1:57:56 8,1 89 S
217 MAWET NATHALIE 5157 1:58:04 8,1 17 A1
218 SCHUMALSKI-KINGS DIETER 5491 1:58:18 8,1 26 V2
219 DETRY PHILIPPE 5063 1:58:23 8,1 27 V2
220 COUNET JEAN-JAQUES 5511 1:58:32 8,1 28 V2
221 MICHEL NADINE 5161 1:58:35 8,1 18 A1
222 GROSJEAN VINCIANE 5096 1:58:41 8,1 19 A1
223 ADAM NATACHA 5000 1:58:43 8,1 20 A1
224 JANSSENS KAREN 5118 1:58:44 8,1 21 A1
225 CREMER NANAP 5453 1:58:52 8,1 22 A1
226 DI GIOVANNI NICOLAS 5333 1:59:01 8,1 90 S
227 SIMON FABIENNE 5432 1:59:12 8,1 6 A2
228 MIDDEL INE 5163 1:59:14 8,1 7 A2
229 ORTMANS KATHLEEN 5176 1:59:30 8,0 8 A2
230 GROMMERCH ANDRE 5434 1:59:35 8,0 62 V1
231 SOARES ALVES DELFIM 5293 1:59:36 8,0 3 V3
232 FAREY MONIQUE 5440 1:59:49 8,0 2 A3
233 PIRENNE ISABELLE 5279 1:59:54 8,0 23 A1
234 PEETERS TOM 5488 2:00:18 8,0 91 S
235 SCHMIDT NADINE 5439 2:00:20 8,0 24 A1
236 SABBE NICOLAS 5339 2:00:26 8,0 63 V1
237 LIEVENS BJORN 5361 2:00:29 8,0 92 S
238 CHATELAIN ALAIN 5036 2:00:44 8,0 64 V1
239 LENOIR ANNE-SOPHIE 5138 2:00:46 7,9 25 A1
240 WALLAERT STEVEN 5242 2:00:48 7,9 93 S
241 LHOIST LAURENT 5142 2:01:14 7,9 94 S
242 VANDECAUGYG FLORENCE 5276 2:01:19 7,9 12 D
243 HENKES AXEL 5104 2:01:35 7,9 65 V1
244 THENNES GEORG 5310 2:01:38 7,9 66 V1
245 DESOUTTER BRIEUC 5062 2:01:45 7,9 95 S
246 MOXHET MONIQUE 5170 2:01:56 7,9 9 A2
247 MOXHET NICOLAS 5171 2:01:58 7,9 4 V3
248 DARIMONT PATRICK 5049 2:02:14 7,9 67 V1
249 PIRET BENOIT 5476 2:02:22 7,8 68 V1
250 PAQUAY FABIENNE 5348 2:02:31 7,8 26 A1
251 VAN LOON BARBARA 5387 2:02:47 7,8 10 A2
252 WESSELS RUUD 5384 2:02:48 7,8 29 V2
253 JONGENBURGER JEROEN 5329 2:02:49 7,8 96 S
254 NOEL DOMINIQUE 5175 2:03:14 7,8 30 V2
255 GILLARD DAMIEN 5089 2:03:16 7,8 97 S
256 COUNET ANNE 5512 2:03:18 7,8 13 D
257 SITHO JONATHAN 5510 2:03:20 7,8 98 S
258 SAVELKOUL AURÉLIE 5194 2:03:21 7,8 14 D
259 BUSSERS MARC 5513 2:03:23 7,8 99 S
260 CHOQUET PHILIPPE 5252 2:03:31 7,8 31 V2
261 LEONARD ANNE 5347 2:03:53 7,7 27 A1
262 THYS ISABELLE 5400 2:03:54 7,7 15 D
263 KNOOPS HANS 5330 2:04:00 7,7 5 V3
264 FAFCHAMPS JOËL 5076 2:04:02 7,7 100 S
265 BRASSAERT ANDRE 5030 2:04:03 7,7 6 V3
266 SPAHN OLIVIER 5325 2:04:09 7,7 101 S
267 BOULANGER GENEVIEVE 5025 2:04:30 7,7 28 A1
268 CROCHET WILLEM 5496 2:04:32 7,7 102 S
269 BAIVIER JEAN 5454 2:04:43 7,7 32 V2
270 MASSART SÉBASTIEN 5151 2:04:45 7,7 103 S
271 ZANZEN HEIKE 5430 2:04:47 7,7 29 A1
272 BASTIN PIERRE-YVES 5471 2:04:48 7,7 69 V1
273 JEUCKENS EMMANUEL 5119 2:04:50 7,7 70 V1
274 VANDERMEULEN BRUNO 5468 2:04:53 7,7 33 V2
275 DEBIE KAREN 5054 2:05:14 7,7 30 A1
276 VAN CAMP SVEN 5223 2:05:19 7,7 71 V1
277 VANCOMPERNOLLE KOEN 5232 2:05:33 7,6 72 V1
278 DUVIVIER MARC 5457 2:05:35 7,6 73 V1
279 DERIJCKE ANN 5061 2:05:38 7,6 31 A1
280 CHEVREMONT JOELLE 5038 2:05:40 7,6 32 A1
281 MIGNOLET BENOIT 5164 2:06:15 7,6 104 S
282 HOUYON VALERIE 5323 2:06:17 7,6 33 A1
283 HOROTTE VINCIANE 5460 2:06:18 7,6 11 A2
284 LENNERTS MAURICE 5459 2:06:21 7,6 34 V2
285 LENTZ CAROLINE 5139 2:06:23 7,6 16 D
286 BROHON BRIGITTE 5456 2:06:26 7,6 3 A3
287 ADAM ANNICK 5341 2:06:45 7,6 17 D
288 THIRIART DELPHINE 5216 2:06:47 7,6 34 A1
289 COEME VINCENT 5039 2:06:49 7,6 105 S
290 HAID CHRISTIAN 5098 2:06:55 7,6 74 V1
291 FIAS LORE 5078 2:07:05 7,6 35 A1
292 HEDGES PHILIP 5101 2:07:06 7,6 35 V2
293 RADERMECKER IRENE 5497 2:07:18 7,5 36 A1
294 BINOT BERNARD 5503 2:07:27 7,5 75 V1
295 WINKELMOLEN THIJS 5467 2:07:31 7,5 36 V2
296 MARECHAL FERNAND 5313 2:07:37 7,5 7 V3
297 BUEKENHOUT POLLE 5032 2:07:47 7,5 37 V2
298 MARICHAL CHRISTELLE 5337 2:07:54 7,5 37 A1
299 MAASSEN IVO 5146 2:08:17 7,5 76 V1
300 GALAND JEAN-MARC 5085 2:08:38 7,5 106 S
301 VERGAUWEN GUNTER 5237 2:08:43 7,5 77 V1
302 DASSEN JOS 5470 2:08:49 7,5 78 V1
303 MARQUET GINETTE 5350 2:08:54 7,4 4 A3
304 KOVSTANJE PAUL 5386 2:09:01 7,4 38 V2
305 GOHY JEAN-PIERRE 5359 2:09:35 7,4 39 V2
306 LOMBARDO MICHÈLE 5144 2:09:45 7,4 107 S
307 MASSIN DOMINIQUE 5153 2:09:47 7,4 108 S
308 LEDUR COLETTE 5401 2:09:49 7,4 12 A2
309 LECLOUX MARTINE 5441 2:10:09 7,4 38 A1
310 SCHMETZ GENEVIEVE 5195 2:10:19 7,4 39 A1
311 EYEN CLAIRE 5075 2:10:40 7,3 40 A1
312 GOOS CHANTAL 5093 2:11:33 7,3 18 D
313 BERTRAND VALERY 5020 2:11:35 7,3 109 S
314 DELFERIER CORALIE 5058 2:11:36 7,3 19 D
315 VAN DE LAAR CARINE 5224 2:11:46 7,3 41 A1
316 WATSON WILLIAM 5283 2:11:49 7,3 7 EG
317 BELLEFLAMME PASCALE 5019 2:11:53 7,3 42 A1
318 MOREAU ANNETTE 5375 2:12:04 7,3 13 A2
319 KAIRIS CECILE 5342 2:12:05 7,3 43 A1
320 GROJEAN PHILIPPE 5273 2:12:07 7,3 79 V1
321 DE BRABANTER ERIC 5478 2:12:23 7,3 80 V1
322 MERTENS MAGDA 5275 2:12:36 7,2 5 A3
323 LANTIUGA FRED 5385 2:12:51 7,2 81 V1
324 DIEUDONNE CANDY 5499 2:12:53 7,2 20 D
325 VAN BREEDAM PASCALE 5222 2:12:55 7,2 14 A2
326 VANDERMAELEN SABIEN 5234 2:12:57 7,2 44 A1
327 SCHOLZEN LAURENT 5363 2:13:10 7,2 110 S
328 CEULEMANS DAVID 5391 2:13:11 7,2 111 S
329 COLIN JOËL 5041 2:13:14 7,2 112 S
330 DRACOULAS NIKOS 5495 2:13:16 7,2 113 S
331 BESSEMS VALERIE 5022 2:13:21 7,2 21 D
332 BERNARD ERIC 5498 2:13:29 7,2 40 V2
333 DEPREZ LIONEL 5505 2:13:54 7,2 114 S
334 GEERKENS ERIC 5086 2:13:57 7,2 82 V1
335 DUMOULIN PIERRE 5069 2:14:00 7,2 8 V3
336 SCHRANZ PASCALE 5197 2:14:21 7,1 15 A2
337 JOSKIN EVA 5388 2:14:30 7,1 1 EF
338 JOSKIN ARTHUR 5322 2:14:38 7,1 8 EG
339 VERVIER FRANÇOISE 5239 2:14:57 7,1 16 A2
340 NELLES SYLVIE 5353 2:15:17 7,1 45 A1
341 VAN DEN BOSSCHE SANDRA 5351 2:15:31 7,1 46 A1
342 DEJARDIN FREDERIQUE 5056 2:15:32 7,1 47 A1
343 DARIMONT JOCELYNE 5380 2:15:34 7,1 17 A2
344 BUVENS MURIELLE 5379 2:15:35 7,1 18 A2
345 LABASSE CHRISTINE 5381 2:15:37 7,1 19 A2
346 MAUHIN JOËLLE 5155 2:15:47 7,1 48 A1
347 REYKENS PHILIPPE 5461 2:15:55 7,1 83 V1
348 FUNCKEN FRANÇOISE 5084 2:15:56 7,1 49 A1
349 MOINEAU VICTOR 5165 2:16:26 7,0 115 S
350 JOSKIN ZENAIDE 5319 2:16:39 7,0 2 EF
351 LENAERTS MURIELLE 5321 2:16:40 7,0 20 A2
352 BAERT ERIC-YVES 5369 2:16:59 7,0 84 V1
353 WINTGENS SOPHIE 5490 2:17:12 7,0 22 D
354 ESTEVEZ AURELIE 5479 2:17:14 7,0 23 D
355 DUMONT DELPHINE 5067 2:17:25 7,0 50 A1
356 CHOQUET FREDERIC 5253 2:18:04 7,0 85 V1
357 FEYEN VERONIQUE 5294 2:18:07 7,0 51 A1
358 THISSEN MICHEL 5312 2:18:08 6,9 41 V2
359 CHARLIER MAURICE 5035 2:18:15 6,9 9 V3
360 BODY OLIVIER 5414 2:18:43 6,9 116 S
361 LEGRAND ANDRE 5296 2:18:46 6,9 86 V1
362 CALAY SAMUEL 5421 2:18:49 6,9 117 S
363 GONSET KARIN 5311 2:18:51 6,9 52 A1
364 DONY FREDERIQUE 5066 2:19:14 6,9 21 A2
365 CAMACHO PATRICK 5033 2:19:15 6,9 42 V2
366 AUPAIX CÉLINE 5007 2:19:25 6,9 24 D
367 LINDEN STEFANIE 5501 2:19:47 6,9 53 A1
368 CHARLES STEPHAN 5362 2:20:15 6,8 87 V1
369 VAN DE VOORDE KRISTEL 5225 2:20:22 6,8 54 A1
370 HENSGENS JEAN 5514 2:20:45 6,8 43 V2
371 ELIAS QUENTIN 5072 2:20:47 6,8 9 EG
372 VAN DEN BLONDEN KAREN 5300 2:20:53 6,8 55 A1
373 SCHOONBROODT EMMANUELLE 5298 2:22:49 6,7 25 D
374 PALM VALERIE 5364 2:22:50 6,7 56 A1
375 HAERENS KIM 5097 2:22:52 6,7 57 A1
376 QUICKE CHRISTIAN 5297 2:23:29 6,7 44 V2
377 POLLÉ CAROLL 5184 2:23:31 6,7 22 A2
378 PARMENTIER ANNICK 5177 2:23:32 6,7 23 A2
379 GRISARD CHANTAL 5095 2:23:36 6,7 24 A2
380 BORN FRANÇOISE 5023 2:23:37 6,7 25 A2
381 CROIMANS BERT 5048 2:23:40 6,7 118 S
382 BRAGARD NATHALIE 5442 2:24:13 6,7 58 A1
383 CARLIER GEERT 5278 2:24:28 6,6 88 V1
384 GREGOIRE VERONIQUE 5094 2:24:30 6,6 59 A1
385 GODEFROID MICHEL 5092 2:24:31 6,6 89 V1
386 LEVEAUX FABIENNE 5409 2:24:33 6,6 60 A1
387 LEUGAUX MICHAEL 5408 2:24:35 6,6 119 S
388 ADAM-FONTAINE LAURENCE 5003 2:24:37 6,6 61 A1
389 JOLET FRANCOISE 5413 2:24:48 6,6 26 D
390 HENNEMAN VANESSA 5105 2:24:58 6,6 62 A1
391 RIGOPOULOS TINA 5190 2:25:00 6,6 63 A1
392 RECKO GISLAIN 5188 2:25:05 6,6 120 S
393 BRUNINX JEAN PIERRE 5494 2:25:44 6,6 45 V2
394 VAN HAUT DANIËL 5227 2:27:09 6,5 46 V2
395 VAN LAAR CLAUDINE 5288 2:27:49 6,5 26 A2
396 VAN LAAR MICHEL 5289 2:27:50 6,5 90 V1
397 LEEMANS KARINE 5133 2:28:05 6,5 27 A2
398 DEGROODT COLETTE 5055 2:28:07 6,5 28 A2
399 TEICHMANN MONIKA 5212 2:28:08 6,5 29 A2
400 MUSIALOWSKA EWA 5172 2:29:17 6,4 27 D
401 MARTIN ISABELLE 5148 2:29:38 6,4 64 A1
402 SCHELLINGS FREDERIQUE 5338 2:29:40 6,4 28 D
403 TANGHE HILDE 5340 2:29:42 6,4 30 A2
404 DUQUENNE CHARLOTTE 5345 2:30:00 6,4 29 D
405 JACOBS NADIA 5116 2:30:24 6,4 31 A2
406 KEVER GABRIELLE 5123 2:32:15 6,3 6 A3
407 VERVAECKE MONIQUE 5238 2:32:17 6,3 32 A2
408 BRAGARD CHANTAL 5028 2:32:19 6,3 65 A1
409 BRANDT ARLETTE 5029 2:32:22 6,3 33 A2
410 HOUGRAND ALAIN 5112 2:32:25 6,3 91 V1
411 PECHE LOUIS 5423 2:32:27 6,3 47 V2
412 HALLEUX MARIANNE 5099 2:32:34 6,3 7 A3
413 LAMBEAU FABRICE 5127 2:33:48 6,2 92 V1
414 MOMMAERTS MARIE JEANNE 5286 2:33:49 6,2 66 A1
415 CHOQUET STEPHANIE 5355 2:33:55 6,2 67 A1
416 VARLET STEPHAN 5235 2:34:03 6,2 48 V2
417 HENDRICK VÉRONIQUE 5102 2:35:39 6,2 68 A1
418 STIERNOTTE ISABELLE 5209 2:35:43 6,2 30 D
419 DOMINIQUE SARAH 5065 2:37:11 6,1 69 A1
420 DAEL MARIE 5452 2:37:12 6,1 34 A2
421 BAEYENS HILDE 5011 2:40:00 6,0 35 A2
422 WARLAND CATHERINE 5245 2:40:54 6,0 70 A1
423 ROUFOSSE FREDERIC 5192 2:40:55 6,0 93 V1
424 GERARD NICOLAS 5395 2:41:32 5,9 94 V1
425 JANSSEN RIANNE 5500 2:42:45 5,9 36 A2
426 FRANCOIS GORIK 5080 2:44:05 5,9 121 S
427 DUMOULIN CÉLINE 5068 2:44:20 5,8 31 D
428 MASSENAUX MARYLINE 5152 2:44:22 5,8 32 D
429 WINKIN CHRISTELLE 5250 2:44:24 5,8 33 D
430 JOST VIRGINIE 5121 2:50:47 5,6 71 A1
431 POITOUX ISABELLE 5455 2:50:49 5,6 34 D
432 LORQUET NOA 5271 2:56:11 5,4 122 S
433 BARRETO AMELIA 5420 2:57:37 5,4 72 A1
434 DALEM JEAN-MARIE 5419 2:57:38 5,4 10 V3
435 KERRENS EDITH 5122 2:58:25 5,4 37 A2
436 MOTTARD SOPHIE 5167 2:58:28 5,4 35 D
437 SACRE EVELYNE 5193 2:58:34 5,4 38 A2
438 TASQUIN ANDRÉ 5211 2:58:35 5,4 11 V3